Flag for Namibia Weather past 2 weeks in Walvis Bay, Namibia

Now
59 °F

Cool.


Feels Like: 58 °F
Forecast: 67 / 78 °F
Wind: 6 mph from Northeast

Location: Walvis Bay

Current Time: Mar 5, 2015 at 2:20:28 AM

Latest Report: Mar 5, 2015 at 1:00 AM


Visibility: N/A

Pressure: 29.92 "Hg

Humidity: 88%

Dew point: 55 °F

Location of Walvis BayLocation

Historic Weather in Walvis Bay — Graph

°F

Walvis Bay temperature yesterday

Maximum temperature yesterday: 77 °F (at 5:00 PM)
Minimum temperature yesterday: 59 °F (at 7:00 AM)
Average temperature yesterday: 63 °F

Past Weeks' High & Low Weather Summary

 TemperatureHumidityPressure
High81 °F (Feb 19, 1:00 PM)94% (Feb 20, 4:00 AM)30.04 "Hg (Feb 20, 4:00 AM)
Low55 °F (Feb 18, 6:00 AM)37% (Feb 19, 3:00 PM)29.80 "Hg (Feb 19, 5:00 PM)
Average64 °F72%29.92 "Hg
* Reported Feb 18 1:00 AM — Mar 5 1:00 AM, Walvis Bay, Weather by CustomWeather, © 2015

Note: Actual official high and low records may vary slightly from our data, if they occured in-between our weather recording intervals... More about our weather records

Advertising

Walvis Bay weather history for previous 24 hours

 ConditionsComfort  
Time TempWeatherWind HumidityBarometerVisibility
1:00 AM
Thu, Mar 5
59 °FCool.6 mph88%29.92 "HgN/A
12:00 AM61 °FCool.5 mph83%29.92 "HgN/A
11:00 PM
Wed, Mar 4
61 °FCool.5 mph88%29.95 "HgN/A
10:00 PM63 °FMild.3 mph83%29.92 "HgN/A
9:00 PM63 °FMild.10 mph83%29.89 "HgN/A
8:00 PM64 °FMild.13 mph78%29.89 "HgN/A
5:00 PM77 °FWarm.18 mph47%29.86 "HgN/A
1:00 PM75 °FMild.8 mph50%29.95 "HgN/A
11:00 AM66 °FMild.2 mph73%30.01 "HgN/A
10:00 AM63 °FMild.3 mph83%30.04 "HgN/A
9:00 AM61 °FLow clouds.1 mph88%30.04 "HgN/A
8:00 AM59 °FLow clouds.5 mph88%30.01 "HgN/A
7:00 AM59 °FLow clouds.3 mph88%30.01 "HgN/A
6:00 AM61 °FLow clouds.2 mph88%29.98 "HgN/A
5:00 AM61 °FCool.3 mph88%29.98 "HgN/A
4:00 AM61 °FCool.3 mph88%29.98 "HgN/A
3:00 AM61 °FCool.2 mph88%30.01 "HgN/A
2:00 AM61 °FCool.3 mph88%30.01 "HgN/A
Weather by CustomWeather, © 2015

See weather overviewHow to use our weather pages